TUI55L EDDL-LTBS

Flight info

Callsign TUI55L
Flight time 3h 5m
Altitude 37000
Route DODEN1T DODEN Y853 BOMBI DCT DETEV DCT DINKU DCT BESNI DCT LATLO DCT OBEDI DCT CEPRA DCT PODET DCT IRDIV DCT MITNO/N0451F410 DCT VABEK UL603 OLOTA DCT RUGAS DCT RIKSO UN127 IMR UT489 SONUP
Aircraft B738/M-SADE2E3FGHIRWXY/LB1

Departure

Time 2026-05-04 10:25
Airport Düsseldorf Airport (EDDL)

Arrival

Time 2026-05-04 13:30
Airport Dalaman International Airport (LTBS)
Time Latitude Longitude Altitude Speed Heading
2026-05-04 10:02 51.27784 6.76337 129 ft 0 kts 163°
2026-05-04 10:12 51.27791 6.76334 127 ft 3 kts 162°
2026-05-04 10:12 51.27812 6.76322 128 ft 3 kts 153°
2026-05-04 10:12 51.27831 6.76303 126 ft 3 kts 127°
2026-05-04 10:13 51.27838 6.76276 128 ft 3 kts 94°
2026-05-04 10:13 51.27840 6.76240 129 ft 3 kts 93°
2026-05-04 10:13 51.27841 6.76203 128 ft 3 kts 92°
2026-05-04 10:13 51.27842 6.76166 125 ft 3 kts 90°
2026-05-04 10:14 51.27841 6.76130 126 ft 3 kts 84°
2026-05-04 10:14 51.27837 6.76095 128 ft 3 kts 64°
2026-05-04 10:16 51.27758 6.76043 125 ft 0 kts
2026-05-04 10:19 51.28247 6.76268 127 ft 18 kts 52°
2026-05-04 10:19 51.28337 6.76456 123 ft 25 kts 53°
2026-05-04 10:19 51.28450 6.76695 125 ft 28 kts 53°
2026-05-04 10:19 51.28564 6.76937 127 ft 26 kts 53°
2026-05-04 10:20 51.28673 6.77160 126 ft 25 kts 51°
2026-05-04 10:20 51.28774 6.77373 129 ft 23 kts 53°
2026-05-04 10:20 51.28870 6.77574 126 ft 22 kts 52°
2026-05-04 10:20 51.28961 6.77768 128 ft 22 kts 52°
2026-05-04 10:21 51.29052 6.77958 128 ft 22 kts 53°
2026-05-04 10:21 51.29144 6.78152 134 ft 22 kts 53°
2026-05-04 10:21 51.29235 6.78342 141 ft 21 kts 53°
2026-05-04 10:21 51.29319 6.78519 149 ft 17 kts 50°
2026-05-04 10:22 51.29488 6.78563 152 ft 12 kts 355°
2026-05-04 10:22 51.29545 6.78540 154 ft 5 kts 283°
2026-05-04 10:22 51.29535 6.78503 152 ft 0 kts 233°
2026-05-04 10:23 51.29528 6.78489 152 ft 6 kts 233°
2026-05-04 10:23 51.29392 6.78205 144 ft 68 kts 233°
2026-05-04 10:25 51.24212 6.67127 2646 ft 252 kts 232°
2026-05-04 10:25 51.23099 6.64928 3428 ft 256 kts 221°
2026-05-04 10:25 51.21516 6.63701 4291 ft 257 kts 189°
2026-05-04 10:25 51.19724 6.63621 5095 ft 262 kts 176°
2026-05-04 10:26 51.17916 6.63910 5884 ft 266 kts 174°
2026-05-04 10:26 51.16074 6.64314 6659 ft 271 kts 166°
2026-05-04 10:26 51.14407 6.65746 7370 ft 278 kts 138°
2026-05-04 10:26 51.13320 6.68298 8124 ft 285 kts 111°
2026-05-04 10:27 51.13040 6.71454 8859 ft 292 kts 90°
2026-05-04 10:27 51.13132 6.74720 9581 ft 298 kts 88°
2026-05-04 10:27 51.13279 6.78045 10259 ft 304 kts 88°
2026-05-04 10:27 51.13438 6.81514 10493 ft 327 kts 88°
2026-05-04 10:28 51.13602 6.85257 10689 ft 348 kts 88°
2026-05-04 10:28 51.13765 6.89177 11126 ft 360 kts 88°
2026-05-04 10:28 51.13924 6.93211 11767 ft 365 kts 88°
2026-05-04 10:28 51.14077 6.97202 12497 ft 367 kts 88°
2026-05-04 10:29 51.14227 7.01278 13200 ft 371 kts 89°
2026-05-04 10:29 51.14376 7.05418 13890 ft 375 kts 89°
2026-05-04 10:29 51.14524 7.09584 14503 ft 378 kts 89°
2026-05-04 10:29 51.14671 7.13782 15126 ft 381 kts 89°
2026-05-04 10:30 51.14818 7.18014 15723 ft 385 kts 89°
2026-05-04 10:30 51.14965 7.22291 16314 ft 388 kts 89°
2026-05-04 10:30 51.15112 7.26610 16914 ft 392 kts 89°
2026-05-04 10:30 51.15258 7.30959 17511 ft 395 kts 89°
2026-05-04 10:31 51.15402 7.35308 18104 ft 399 kts 89°
2026-05-04 10:31 51.15525 7.39734 18627 ft 401 kts 94°
2026-05-04 10:32 51.05742 7.59873 21604 ft 399 kts 141°
2026-05-04 10:33 51.03712 7.62932 21979 ft 405 kts 140°
2026-05-04 10:33 51.01660 7.66046 22407 ft 409 kts 140°
2026-05-04 10:33 50.99599 7.69181 22886 ft 411 kts 140°
2026-05-04 10:33 50.97555 7.72287 23343 ft 414 kts 141°
2026-05-04 10:34 50.95364 7.75232 23727 ft 413 kts 150°
2026-05-04 10:34 50.92940 7.77687 24108 ft 413 kts 153°
2026-05-04 10:34 50.90494 7.79994 24502 ft 414 kts 154°
2026-05-04 10:34 50.87999 7.82326 24890 ft 417 kts 154°
2026-05-04 10:35 50.85500 7.84689 25255 ft 419 kts 153°
2026-05-04 10:35 50.82993 7.87095 25613 ft 422 kts 153°
2026-05-04 10:35 50.80480 7.89534 25965 ft 424 kts 153°
2026-05-04 10:35 50.77963 7.91992 26322 ft 427 kts 153°
2026-05-04 10:36 50.75426 7.94473 26670 ft 429 kts 153°
2026-05-04 10:36 50.72915 7.96928 26977 ft 431 kts 153°
2026-05-04 10:36 50.70355 7.99425 27258 ft 434 kts 153°
2026-05-04 10:36 50.67768 8.01945 27555 ft 437 kts 153°
2026-05-04 10:37 50.65168 8.04476 27888 ft 439 kts 153°
2026-05-04 10:37 50.62559 8.07009 28223 ft 441 kts 153°
2026-05-04 10:37 50.59947 8.09563 28502 ft 444 kts 151°
2026-05-04 10:37 50.57434 8.12463 28804 ft 449 kts 146°
2026-05-04 10:39 50.42967 8.31886 30424 ft 461 kts 146°
2026-05-04 10:39 50.40537 8.35062 30738 ft 459 kts 146°
2026-05-04 10:39 50.38084 8.38255 31053 ft 458 kts 146°
2026-05-04 10:40 50.35629 8.41442 31327 ft 458 kts 146°
2026-05-04 10:40 50.33166 8.44636 31662 ft 456 kts 146°
2026-05-04 10:40 50.30747 8.47774 32237 ft 449 kts 146°
2026-05-04 10:40 50.28344 8.50886 32600 ft 447 kts 146°
2026-05-04 10:41 50.25937 8.53996 32780 ft 449 kts 146°
2026-05-04 10:41 50.23525 8.57106 32948 ft 451 kts 146°
2026-05-04 10:41 50.21101 8.60231 33234 ft 450 kts 146°
2026-05-04 10:41 50.18691 8.63335 33575 ft 448 kts 146°
2026-05-04 10:42 50.16285 8.66432 33882 ft 447 kts 146°
2026-05-04 10:42 50.13879 8.69524 34109 ft 447 kts 146°
2026-05-04 10:42 50.11470 8.72614 34307 ft 448 kts 146°
2026-05-04 10:42 50.09096 8.75655 34518 ft 447 kts 146°
2026-05-04 10:43 50.06808 8.78961 34756 ft 452 kts 136°
2026-05-04 10:44 49.96438 9.09742 36156 ft 461 kts 120°
2026-05-04 10:45 49.95039 9.14222 36298 ft 461 kts 120°
2026-05-04 10:45 49.93630 9.18710 36472 ft 461 kts 121°
2026-05-04 10:45 49.92221 9.23184 36650 ft 461 kts 121°
2026-05-04 10:45 49.90812 9.27654 36847 ft 460 kts 121°
2026-05-04 10:46 49.89423 9.32051 37006 ft 460 kts 121°
2026-05-04 10:46 49.86590 9.41009 37018 ft 463 kts 121°
2026-05-04 10:47 49.83750 9.49948 37018 ft 459 kts 122°
2026-05-04 10:47 49.80090 9.57789 37006 ft 443 kts 141°
2026-05-04 10:49 49.62863 9.82438 37028 ft 443 kts 142°
2026-05-04 10:50 49.57608 9.89989 37028 ft 445 kts 142°
2026-05-04 10:52 49.40057 10.15038 37025 ft 451 kts 141°
2026-05-04 10:52 49.35470 10.21543 37032 ft 451 kts 142°
2026-05-04 10:54 49.17172 10.47781 37041 ft 447 kts 140°
2026-05-04 10:56 48.99470 10.74075 37055 ft 443 kts 140°
2026-05-04 10:57 48.95029 10.80603 37041 ft 444 kts 140°
2026-05-04 10:57 48.90574 10.87138 37041 ft 445 kts 140°
2026-05-04 10:58 48.86094 10.93692 37022 ft 447 kts 140°
2026-05-04 10:58 48.81635 11.00200 37019 ft 448 kts 140°
2026-05-04 10:59 48.77130 11.06756 37016 ft 449 kts 140°
2026-05-04 10:59 48.72614 11.13312 37027 ft 450 kts 140°
2026-05-04 11:00 48.68084 11.19876 37021 ft 451 kts 140°
2026-05-04 11:02 48.50892 11.47614 37018 ft 453 kts 136°
2026-05-04 11:05 48.19171 11.99596 37019 ft 448 kts 136°
2026-05-04 11:06 48.14932 12.06464 37000 ft 449 kts 135°
2026-05-04 11:06 48.10685 12.13326 37023 ft 449 kts 136°
2026-05-04 11:10 47.80731 12.61225 36992 ft 452 kts 136°
2026-05-04 11:12 47.63443 12.88142 36998 ft 448 kts 137°
2026-05-04 11:12 47.59005 12.94628 37002 ft 448 kts 137°
2026-05-04 11:13 47.54577 13.01123 37009 ft 447 kts 137°
2026-05-04 11:13 47.50195 13.07562 37003 ft 446 kts 137°
2026-05-04 11:14 47.45773 13.14054 37012 ft 447 kts 137°
2026-05-04 11:16 47.28729 13.40912 37022 ft 453 kts 127°
2026-05-04 11:16 47.25093 13.48499 37038 ft 454 kts 127°
2026-05-04 11:17 47.21418 13.56070 37057 ft 454 kts 127°
2026-05-04 11:19 47.06489 13.86113 37061 ft 456 kts 128°
2026-05-04 11:19 47.02729 13.93623 37063 ft 456 kts 128°
2026-05-04 11:20 46.98968 14.01115 37049 ft 456 kts 128°
2026-05-04 11:20 46.95205 14.08589 37056 ft 456 kts 128°
2026-05-04 11:22 46.80111 14.38376 37072 ft 457 kts 128°
2026-05-04 11:23 46.76308 14.45829 37067 ft 457 kts 128°
2026-05-04 11:25 46.62976 14.71806 37064 ft 458 kts 128°
2026-05-04 11:25 46.59144 14.79221 37065 ft 459 kts 128°
2026-05-04 11:27 46.41838 15.12502 37066 ft 460 kts 128°
2026-05-04 11:28 46.37965 15.19904 37064 ft 461 kts 128°
2026-05-04 11:28 46.34201 15.27430 37064 ft 462 kts 125°
2026-05-04 11:29 46.30570 15.35034 37064 ft 462 kts 125°
2026-05-04 11:29 46.26889 15.42668 37065 ft 463 kts 125°
2026-05-04 11:31 46.13208 15.68362 37086 ft 461 kts 137°
2026-05-04 11:33 45.96826 15.90481 37081 ft 461 kts 137°
2026-05-04 11:33 45.92196 15.96793 37095 ft 461 kts 137°
2026-05-04 11:34 45.87540 16.03124 37101 ft 461 kts 137°
2026-05-04 11:34 45.82881 16.09449 37110 ft 461 kts 137°
2026-05-04 11:35 45.78204 16.15776 37106 ft 462 kts 137°
2026-05-04 11:35 45.73555 16.22047 37101 ft 462 kts 137°
2026-05-04 11:36 45.68860 16.28364 37094 ft 463 kts 137°
2026-05-04 11:36 45.64167 16.34671 37091 ft 464 kts 136°
2026-05-04 11:37 45.59451 16.40989 37089 ft 464 kts 137°
2026-05-04 11:37 45.54728 16.47300 37090 ft 465 kts 137°
2026-05-04 11:38 45.50002 16.53601 37087 ft 465 kts 137°
2026-05-04 11:38 45.45297 16.59859 37098 ft 466 kts 137°
2026-05-04 11:39 45.40557 16.66149 37090 ft 466 kts 137°
2026-05-04 11:41 45.24758 16.87005 37103 ft 464 kts 137°
2026-05-04 11:41 45.20015 16.93235 37094 ft 464 kts 137°
2026-05-04 11:42 45.15270 16.99452 37100 ft 464 kts 137°
2026-05-04 11:42 45.10557 17.05615 37096 ft 463 kts 137°
2026-05-04 11:43 45.05834 17.11839 37098 ft 463 kts 133°
2026-05-04 11:43 45.01648 17.18743 37101 ft 462 kts 128°
2026-05-04 11:44 44.97619 17.25812 37103 ft 462 kts 128°
2026-05-04 11:44 44.93558 17.32858 37103 ft 462 kts 128°
2026-05-04 11:45 44.89464 17.39854 37118 ft 462 kts 129°
2026-05-04 11:45 44.85372 17.46791 37104 ft 463 kts 129°
2026-05-04 11:46 44.81246 17.53766 37107 ft 463 kts 129°
2026-05-04 11:46 44.77108 17.60747 37099 ft 464 kts 129°
2026-05-04 11:47 44.72974 17.67705 37106 ft 464 kts 129°
2026-05-04 11:47 44.68828 17.74667 37106 ft 464 kts 129°
2026-05-04 11:48 44.64676 17.81622 37109 ft 464 kts 129°
2026-05-04 11:48 44.60521 17.88566 37103 ft 464 kts 129°
2026-05-04 11:49 44.56362 17.95500 37108 ft 464 kts 129°
2026-05-04 11:49 44.52223 18.02382 37101 ft 464 kts 129°
2026-05-04 11:50 44.48054 18.09299 37108 ft 464 kts 129°
2026-05-04 11:50 44.43878 18.16208 37110 ft 464 kts 129°
2026-05-04 11:51 44.39696 18.23113 37107 ft 464 kts 129°
2026-05-04 11:51 44.35512 18.30004 37120 ft 465 kts 129°
2026-05-04 11:52 44.31345 18.36850 37115 ft 466 kts 129°
2026-05-04 11:52 44.27141 18.43741 37116 ft 466 kts 129°
2026-05-04 11:53 44.22928 18.50629 37113 ft 466 kts 129°
2026-05-04 11:53 44.18715 18.57500 37130 ft 466 kts 129°
2026-05-04 11:55 44.01807 18.84916 37130 ft 468 kts 129°
2026-05-04 11:56 43.97583 18.91723 37122 ft 468 kts 129°
2026-05-04 11:56 43.93328 18.98565 37138 ft 468 kts 129°
2026-05-04 11:57 43.89071 19.05395 37130 ft 468 kts 129°
2026-05-04 11:57 43.84805 19.12222 37135 ft 469 kts 129°
2026-05-04 11:58 43.80531 19.19049 37137 ft 469 kts 129°
2026-05-04 11:58 43.76284 19.25912 37137 ft 468 kts 127°
2026-05-04 11:59 43.72323 19.33060 37144 ft 468 kts 124°
2026-05-04 11:59 43.68470 19.40239 37144 ft 468 kts 124°
2026-05-04 12:00 43.64561 19.47443 37138 ft 469 kts 124°
2026-05-04 12:00 43.60621 19.54619 37134 ft 469 kts 125°
2026-05-04 12:01 43.56666 19.61784 37133 ft 469 kts 125°
2026-05-04 12:02 43.42815 19.86744 37135 ft 469 kts 124°
2026-05-04 12:03 43.38844 19.93865 37154 ft 468 kts 124°
2026-05-04 12:03 43.34876 20.00963 37131 ft 468 kts 124°
2026-05-04 12:04 43.30902 20.08053 37135 ft 468 kts 124°
2026-05-04 12:04 43.26927 20.15128 37156 ft 468 kts 124°
2026-05-04 12:05 43.22938 20.22211 37149 ft 469 kts 124°
2026-05-04 12:05 43.18941 20.29292 37156 ft 470 kts 124°
2026-05-04 12:06 43.14951 20.36344 37147 ft 471 kts 124°
2026-05-04 12:06 43.10929 20.43436 37143 ft 471 kts 124°
2026-05-04 12:07 43.06894 20.50533 37161 ft 472 kts 124°
2026-05-04 12:07 43.02855 20.57624 37153 ft 472 kts 124°
2026-05-04 12:08 42.98673 20.64495 37139 ft 476 kts 131°
2026-05-04 12:08 42.93892 20.70742 37142 ft 477 kts 134°
2026-05-04 12:09 42.89031 20.76910 37141 ft 476 kts 134°
2026-05-04 12:09 42.84217 20.83103 37167 ft 475 kts 133°
2026-05-04 12:10 42.79436 20.89311 37149 ft 474 kts 133°
2026-05-04 12:10 42.74671 20.95502 37154 ft 473 kts 133°
2026-05-04 12:11 42.69946 21.01625 37150 ft 471 kts 133°
2026-05-04 12:11 42.65197 21.07761 37155 ft 470 kts 133°
2026-05-04 12:12 42.60461 21.13867 37149 ft 469 kts 133°
2026-05-04 12:12 42.55728 21.19955 37160 ft 469 kts 133°
2026-05-04 12:14 42.36763 21.44218 37127 ft 471 kts 133°
2026-05-04 12:15 42.31975 21.50310 37128 ft 472 kts 134°
2026-05-04 12:15 42.27183 21.56398 37115 ft 473 kts 134°
2026-05-04 12:16 42.22374 21.62496 37107 ft 474 kts 133°
2026-05-04 12:16 42.17649 21.68705 37122 ft 474 kts 132°
2026-05-04 12:17 42.12970 21.74960 37127 ft 474 kts 132°
2026-05-04 12:17 42.08304 21.81167 37145 ft 474 kts 132°
2026-05-04 12:18 42.03587 21.87401 37124 ft 475 kts 132°
2026-05-04 12:18 41.98862 21.93621 37109 ft 475 kts 133°
2026-05-04 12:19 41.94139 21.99825 37119 ft 475 kts 133°
2026-05-04 12:19 41.89434 22.05995 37096 ft 474 kts 133°
2026-05-04 12:20 41.84712 22.12172 37103 ft 474 kts 133°
2026-05-04 12:20 41.79990 22.18336 37112 ft 473 kts 133°
2026-05-04 12:21 41.75269 22.24486 37105 ft 473 kts 133°
2026-05-04 12:21 41.70536 22.30638 37104 ft 473 kts 133°
2026-05-04 12:22 41.65815 22.36762 37111 ft 473 kts 133°
2026-05-04 12:22 41.61116 22.42843 37101 ft 472 kts 133°
2026-05-04 12:23 41.56397 22.48938 37117 ft 472 kts 133°
2026-05-04 12:23 41.51671 22.55029 37104 ft 472 kts 133°
2026-05-04 12:24 41.46945 22.61106 37098 ft 471 kts 134°
2026-05-04 12:24 41.42251 22.67131 37099 ft 470 kts 134°
2026-05-04 12:25 41.37536 22.73172 37101 ft 469 kts 134°
2026-05-04 12:25 41.32838 22.79197 37115 ft 469 kts 132°
2026-05-04 12:26 41.28541 22.85616 37102 ft 466 kts 128°
2026-05-04 12:26 41.24356 22.92189 37106 ft 465 kts 128°
2026-05-04 12:27 41.20161 22.98742 37098 ft 465 kts 128°
2026-05-04 12:27 41.16652 23.04168 37101 ft 466 kts 128°
2026-05-04 12:28 41.12415 23.10678 37110 ft 466 kts 128°
2026-05-04 12:28 41.08174 23.17172 37107 ft 466 kts 129°
2026-05-04 12:29 41.03926 23.23665 37101 ft 465 kts 129°
2026-05-04 12:29 40.99681 23.30142 37098 ft 465 kts 129°
2026-05-04 12:30 40.95437 23.36609 37104 ft 465 kts 129°
2026-05-04 12:30 40.91217 23.43025 37124 ft 465 kts 129°
2026-05-04 12:31 40.86953 23.49478 37096 ft 466 kts 129°
2026-05-04 12:31 40.82699 23.55923 37088 ft 465 kts 129°
2026-05-04 12:32 40.76311 23.65553 37088 ft 463 kts 129°
2026-05-04 12:33 40.72069 23.71934 37098 ft 461 kts 129°
2026-05-04 12:33 40.67863 23.78255 37099 ft 461 kts 129°
2026-05-04 12:34 40.63632 23.84595 37094 ft 460 kts 129°
2026-05-04 12:34 40.59405 23.90912 37098 ft 459 kts 129°
2026-05-04 12:35 40.55177 23.97220 37095 ft 459 kts 129°
2026-05-04 12:35 40.50937 24.03534 37099 ft 460 kts 129°
2026-05-04 12:36 40.46728 24.09789 37115 ft 460 kts 130°
2026-05-04 12:36 40.42483 24.16086 37097 ft 461 kts 130°
2026-05-04 12:37 40.38223 24.22393 37086 ft 461 kts 130°
2026-05-04 12:37 40.33959 24.28689 37100 ft 461 kts 130°
2026-05-04 12:38 40.29718 24.34938 37096 ft 461 kts 130°
2026-05-04 12:38 40.25446 24.41221 37113 ft 461 kts 130°
2026-05-04 12:39 40.21173 24.47503 37097 ft 462 kts 130°
2026-05-04 12:39 40.16896 24.53766 37098 ft 461 kts 130°
2026-05-04 12:40 40.12651 24.59967 37095 ft 460 kts 130°
2026-05-04 12:40 40.08383 24.66190 37100 ft 459 kts 130°
2026-05-04 12:41 40.04114 24.72405 37101 ft 459 kts 130°
2026-05-04 12:41 39.99851 24.78600 37097 ft 458 kts 130°
2026-05-04 12:42 39.95591 24.84777 37095 ft 457 kts 130°
2026-05-04 12:42 39.91353 24.90910 37097 ft 457 kts 130°
2026-05-04 12:43 39.87098 24.97055 37102 ft 457 kts 130°
2026-05-04 12:43 39.82831 25.03205 37115 ft 457 kts 130°
2026-05-04 12:44 39.78561 25.09347 37090 ft 458 kts 130°
2026-05-04 12:44 39.74303 25.15456 37109 ft 458 kts 130°
2026-05-04 12:45 39.70020 25.21595 37099 ft 459 kts 130°
2026-05-04 12:45 39.65719 25.27746 37102 ft 461 kts 130°
2026-05-04 12:46 39.61404 25.33904 37111 ft 462 kts 130°
2026-05-04 12:46 39.57076 25.40072 37088 ft 463 kts 131°
2026-05-04 12:47 39.52737 25.46237 37091 ft 462 kts 131°
2026-05-04 12:47 39.48400 25.52387 37077 ft 462 kts 131°
2026-05-04 12:48 39.44093 25.58487 37087 ft 462 kts 131°
2026-05-04 12:48 39.39757 25.64615 37102 ft 462 kts 131°
2026-05-04 12:49 39.35409 25.70742 37092 ft 462 kts 131°
2026-05-04 12:49 39.31063 25.76857 37082 ft 462 kts 131°
2026-05-04 12:50 39.26718 25.82960 37080 ft 461 kts 131°
2026-05-04 12:50 39.22374 25.89049 37079 ft 461 kts 131°
2026-05-04 12:51 39.18027 25.95129 37080 ft 461 kts 131°
2026-05-04 12:51 39.13702 26.01179 37078 ft 462 kts 131°
2026-05-04 12:52 39.09337 26.07263 37074 ft 463 kts 131°
2026-05-04 12:52 39.04951 26.13358 37072 ft 465 kts 131°
2026-05-04 12:53 39.00541 26.19472 37068 ft 467 kts 131°
2026-05-04 12:53 38.96105 26.25620 37075 ft 468 kts 131°
2026-05-04 12:54 38.91693 26.31722 37079 ft 469 kts 131°
2026-05-04 12:54 38.87243 26.37866 37072 ft 469 kts 132°
2026-05-04 12:55 38.82780 26.43966 37063 ft 469 kts 135°
2026-05-04 12:55 38.77929 26.49556 37069 ft 469 kts 139°
2026-05-04 12:56 38.72963 26.54964 37055 ft 468 kts 139°
2026-05-04 12:56 38.68029 26.60398 37052 ft 467 kts 138°
2026-05-04 12:57 38.63127 26.65856 37045 ft 467 kts 138°
2026-05-04 12:57 38.58260 26.71283 37043 ft 466 kts 138°
2026-05-04 12:58 38.53366 26.76728 37042 ft 466 kts 138°
2026-05-04 12:58 38.48467 26.82164 37042 ft 466 kts 138°
2026-05-04 12:59 38.43564 26.87595 37048 ft 467 kts 138°
2026-05-04 12:59 38.38671 26.93007 37039 ft 468 kts 139°
2026-05-04 13:00 38.33740 26.98449 37034 ft 471 kts 138°
2026-05-04 13:00 38.31369 27.01347 36729 ft 474 kts 130°
2026-05-04 13:00 38.29371 27.04664 36467 ft 470 kts 123°
2026-05-04 13:00 38.27534 27.08084 36229 ft 468 kts 122°
2026-05-04 13:01 38.25717 27.11516 35989 ft 465 kts 122°
2026-05-04 13:01 38.23918 27.14905 35730 ft 460 kts 122°
2026-05-04 13:01 38.22125 27.18252 35365 ft 455 kts 122°
2026-05-04 13:01 38.20357 27.21521 34957 ft 451 kts 123°
2026-05-04 13:02 38.18554 27.24827 34542 ft 447 kts 122°
2026-05-04 13:02 38.16786 27.28065 34150 ft 444 kts 122°
2026-05-04 13:02 38.15034 27.31270 33707 ft 440 kts 122°
2026-05-04 13:02 38.13296 27.34444 33262 ft 436 kts 122°
2026-05-04 13:03 38.11595 27.37545 32870 ft 431 kts 122°
2026-05-04 13:03 38.09889 27.40653 32483 ft 426 kts 122°
2026-05-04 13:03 38.08197 27.43732 32096 ft 422 kts 122°
2026-05-04 13:03 38.06521 27.46781 31729 ft 418 kts 122°
2026-05-04 13:04 38.04865 27.49787 31336 ft 415 kts 121°
2026-05-04 13:04 38.03215 27.52783 30957 ft 412 kts 121°
2026-05-04 13:04 38.01580 27.55756 30591 ft 409 kts 121°
2026-05-04 13:04 37.99959 27.58697 30219 ft 406 kts 121°
2026-05-04 13:05 37.98361 27.61591 29802 ft 403 kts 121°
2026-05-04 13:05 37.96761 27.64485 29441 ft 399 kts 121°
2026-05-04 13:05 37.95176 27.67349 29057 ft 395 kts 121°
2026-05-04 13:05 37.93605 27.70189 28689 ft 392 kts 121°
2026-05-04 13:06 37.92042 27.73013 28309 ft 390 kts 121°
2026-05-04 13:06 37.90476 27.75839 27962 ft 395 kts 122°
2026-05-04 13:06 37.88888 27.78703 27566 ft 397 kts 122°
2026-05-04 13:06 37.87308 27.81550 27188 ft 393 kts 122°
2026-05-04 13:07 37.85742 27.84372 26808 ft 390 kts 122°
2026-05-04 13:07 37.84186 27.87174 26430 ft 387 kts 122°
2026-05-04 13:07 37.82644 27.89951 26066 ft 385 kts 122°
2026-05-04 13:07 37.81119 27.92695 25711 ft 384 kts 122°
2026-05-04 13:08 37.79568 27.95486 25342 ft 383 kts 122°
2026-05-04 13:08 37.78046 27.98223 24993 ft 386 kts 122°
2026-05-04 13:08 37.76491 28.01016 24622 ft 388 kts 123°
2026-05-04 13:08 37.74934 28.03811 24252 ft 386 kts 123°
2026-05-04 13:09 37.73387 28.06582 23899 ft 384 kts 123°
2026-05-04 13:09 37.71848 28.09336 23493 ft 384 kts 123°
2026-05-04 13:09 37.70309 28.12089 23070 ft 383 kts 123°
2026-05-04 13:09 37.68776 28.14827 22667 ft 380 kts 123°
2026-05-04 13:10 37.67254 28.17547 22297 ft 378 kts 123°
2026-05-04 13:10 37.65760 28.20214 21941 ft 376 kts 123°
2026-05-04 13:10 37.64252 28.22906 21573 ft 374 kts 123°
2026-05-04 13:10 37.62751 28.25582 21225 ft 372 kts 123°
2026-05-04 13:11 37.61256 28.28245 20891 ft 372 kts 123°
2026-05-04 13:11 37.59766 28.30897 20530 ft 372 kts 122°
2026-05-04 13:11 37.58262 28.33573 20179 ft 373 kts 122°
2026-05-04 13:11 37.56758 28.36245 19819 ft 375 kts 122°
2026-05-04 13:12 37.55249 28.38925 19475 ft 373 kts 122°
2026-05-04 13:12 37.53744 28.41597 19098 ft 373 kts 123°
2026-05-04 13:12 37.52241 28.44259 18744 ft 371 kts 123°
2026-05-04 13:12 37.50748 28.46897 18391 ft 369 kts 124°
2026-05-04 13:13 37.49024 28.49291 18023 ft 370 kts 139°
2026-05-04 13:13 37.46933 28.51175 17641 ft 369 kts 152°
2026-05-04 13:13 37.44647 28.52528 17301 ft 367 kts 157°
2026-05-04 13:13 37.42301 28.53788 16966 ft 366 kts 158°
2026-05-04 13:14 37.39958 28.55036 16628 ft 366 kts 158°
2026-05-04 13:14 37.37612 28.56295 16290 ft 366 kts 157°
2026-05-04 13:14 37.35282 28.57558 15943 ft 365 kts 157°
2026-05-04 13:14 37.32941 28.58837 15605 ft 365 kts 156°
2026-05-04 13:15 37.30617 28.60112 15269 ft 364 kts 156°
2026-05-04 13:15 37.28332 28.61366 14957 ft 362 kts 156°
2026-05-04 13:15 37.26021 28.62634 14632 ft 361 kts 156°
2026-05-04 13:15 37.23724 28.63894 14305 ft 359 kts 156°
2026-05-04 13:16 37.22208 28.64724 14076 ft 358 kts 156°
2026-05-04 13:16 37.19929 28.65973 13734 ft 355 kts 156°
2026-05-04 13:16 37.17673 28.67208 13405 ft 352 kts 156°
2026-05-04 13:16 37.14706 28.68833 12947 ft 349 kts 156°
2026-05-04 13:17 37.13205 28.69654 12734 ft 347 kts 156°
2026-05-04 13:17 37.10994 28.70864 12405 ft 345 kts 156°
2026-05-04 13:17 37.08828 28.72047 12094 ft 342 kts 156°
2026-05-04 13:17 37.06615 28.73108 11788 ft 340 kts 168°
2026-05-04 13:18 37.04278 28.73233 11478 ft 334 kts 186°
2026-05-04 13:18 37.01978 28.73034 11220 ft 328 kts 186°
2026-05-04 13:18 36.99705 28.72833 10943 ft 326 kts 186°
2026-05-04 13:18 36.97447 28.72644 10636 ft 324 kts 186°
2026-05-04 13:19 36.95210 28.72471 10347 ft 322 kts 185°
2026-05-04 13:19 36.92971 28.72304 10078 ft 320 kts 185°
2026-05-04 13:19 36.90751 28.72141 9935 ft 317 kts 185°
2026-05-04 13:19 36.88577 28.71841 9523 ft 318 kts 195°
2026-05-04 13:20 36.86438 28.71159 9207 ft 316 kts 198°
2026-05-04 13:20 36.84321 28.70436 8888 ft 313 kts 198°
2026-05-04 13:20 36.82222 28.69725 8585 ft 312 kts 198°
2026-05-04 13:20 36.80121 28.69042 8301 ft 312 kts 197°
2026-05-04 13:21 36.78045 28.68381 8007 ft 311 kts 197°
2026-05-04 13:21 36.75938 28.67723 7713 ft 310 kts 197°
2026-05-04 13:21 36.73877 28.67082 7403 ft 301 kts 197°
2026-05-04 13:21 36.71873 28.66459 7140 ft 292 kts 197°
2026-05-04 13:22 36.69918 28.65851 6839 ft 285 kts 197°
2026-05-04 13:22 36.68027 28.65252 6600 ft 276 kts 198°
2026-05-04 13:22 36.66198 28.64633 6357 ft 268 kts 198°
2026-05-04 13:22 36.64414 28.64024 6091 ft 262 kts 199°
2026-05-04 13:23 36.62661 28.63426 5854 ft 260 kts 199°
2026-05-04 13:23 36.60944 28.62843 5634 ft 259 kts 199°
2026-05-04 13:23 36.59205 28.62254 5398 ft 259 kts 199°
2026-05-04 13:23 36.57466 28.61666 5139 ft 259 kts 199°
2026-05-04 13:24 36.55705 28.61217 4882 ft 262 kts 182°
2026-05-04 13:24 36.53957 28.61816 4646 ft 265 kts 147°
2026-05-04 13:24 36.52725 28.63443 4446 ft 255 kts 114°
2026-05-04 13:25 36.51710 28.67416 4013 ft 230 kts 100°
2026-05-04 13:25 36.51326 28.69314 3766 ft 222 kts 93°
2026-05-04 13:25 36.51500 28.71092 3537 ft 198 kts 56°
2026-05-04 13:25 36.52270 28.72314 3363 ft 178 kts 34°
2026-05-04 13:26 36.53279 28.73086 3153 ft 164 kts 13°
2026-05-04 13:26 36.54356 28.73500 2982 ft 163 kts 10°
2026-05-04 13:26 36.55440 28.73870 2882 ft 158 kts
2026-05-04 13:26 36.56496 28.74228 2771 ft 160 kts
2026-05-04 13:27 36.57575 28.74592 2573 ft 161 kts
2026-05-04 13:27 36.58654 28.74958 2357 ft 160 kts
2026-05-04 13:27 36.59723 28.75321 2155 ft 159 kts 11°
2026-05-04 13:27 36.60804 28.75687 1938 ft 162 kts 10°
2026-05-04 13:28 36.61873 28.76048 1717 ft 160 kts 11°
2026-05-04 13:28 36.62930 28.76409 1494 ft 153 kts 11°
2026-05-04 13:28 36.63910 28.76741 1337 ft 141 kts 11°
2026-05-04 13:28 36.64873 28.77067 1113 ft 140 kts 10°
2026-05-04 13:29 36.65823 28.77388 924 ft 148 kts 11°
2026-05-04 13:29 36.66807 28.77724 697 ft 145 kts 10°
2026-05-04 13:29 36.67787 28.78056 525 ft 147 kts
2026-05-04 13:29 36.68766 28.78393 330 ft 146 kts
2026-05-04 13:30 36.69759 28.78720 118 ft 148 kts
2026-05-04 13:30 36.70717 28.79044 12 ft 129 kts 17°
2026-05-04 13:30 36.71373 28.79271 12 ft 68 kts 15°
2026-05-04 13:30 36.71743 28.79396 11 ft 40 kts 14°
2026-05-04 13:31 36.71947 28.79433 13 ft 25 kts 357°
2026-05-04 13:31 36.72087 28.79400 11 ft 14 kts 345°
2026-05-04 13:31 36.72152 28.79378 11 ft 9 kts 345°
2026-05-04 13:31 36.72197 28.79363 11 ft 4 kts 345°
2026-05-04 13:32 36.72203 28.79361 11 ft 0 kts 345°
2026-05-04 13:32 36.72210 28.79359 11 ft 4 kts 346°
2026-05-04 13:32 36.72256 28.79352 11 ft 9 kts 339°
2026-05-04 13:32 36.72288 28.79271 13 ft 12 kts 286°
2026-05-04 13:33 36.72305 28.79173 11 ft 8 kts 258°
2026-05-04 13:33 36.72270 28.79144 11 ft 7 kts 197°
2026-05-04 13:33 36.72216 28.79114 12 ft 9 kts 237°
2026-05-04 13:33 36.72220 28.79058 11 ft 2 kts 286°
2026-05-04 13:34 36.72223 28.79047 11 ft 0 kts 285°